GW1213 Weather Reports


time (UTC)temp
C
wind
direction
speed
KPH
gust
KPH
rain 1hr
cm
rain 24hr
cm
rain mn
cm
humidity
%
barometer
mb
20260504215036 25 208 4.8 14.5 0.00 0.00 0.00 33 1009.5
20260504214552 25 259 4.8 14.5 0.00 0.00 0.00 33 1009.5
20260504214035 25 263 4.8 14.5 0.00 0.00 0.00 33 1009.5
20260504213535 25 246 4.8 14.5 0.00 0.00 0.00 33 1009.4
20260504213053 25 208 3.2 17.7 0.00 0.00 0.00 34 1009.4
20260504212535 25 239 6.4 17.7 0.00 0.00 0.00 33 1009.5
20260504212034 25 207 6.4 17.7 0.00 0.00 0.00 32 1009.5
20260504211554 25 116 6.4 16.1 0.00 0.00 0.00 32 1009.5
20260504211035 25 242 4.8 16.1 0.00 0.00 0.00 31 1009.5
20260504210536 25 169 4.8 14.5 0.00 0.00 0.00 33 1009.5
20260504210051 25 246 1.6 12.9 0.00 0.00 0.00 33 1009.4
20260504205536 25 223 3.2 16.1 0.00 0.00 0.00 31 1009.5
20260504205035 25 250 6.4 16.1 0.00 0.00 0.00 31 1009.6
20260504204547 25 193 4.8 20.9 0.00 0.00 0.00 31 1009.6
20260504204035 25 267 4.8 20.9 0.00 0.00 0.00 32 1009.6
20260504203535 25 159 6.4 19.3 0.00 0.00 0.00 31 1009.5
20260504203045 25 232 3.2 17.7 0.00 0.00 0.00 31 1009.7
20260504202535 25 182 4.8 16.1 0.00 0.00 0.00 32 1009.7
20260504202035 25 290 3.2 17.7 0.00 0.00 0.00 31 1010.0
20260504201551 25 175 4.8 17.7 0.00 0.00 0.00 31 1009.9
20260504201038 25 268 4.8 17.7 0.00 0.00 0.00 31 1009.9
20260504200537 25 176 4.8 17.7 0.00 0.00 0.00 31 1010.0
20260504200055 25 184 6.4 16.1 0.00 0.00 0.00 32 1010.0
20260504195535 24 239 4.8 14.5 0.00 0.00 0.00 33 1010.1
20260504195036 24 129 3.2 16.1 0.00 0.00 0.00 32 1010.1
20260504194549 25 289 6.4 17.7 0.00 0.00 0.00 32 1010.2
20260504194038 25 252 6.4 17.7 0.00 0.00 0.00 30 1010.1
20260504193536 26 255 3.2 17.7 0.00 0.00 0.00 30 1010.2
20260504193047 26 217 4.8 16.1 0.00 0.00 0.00 30 1010.2
20260504192534 26 153 6.4 14.5 0.00 0.00 0.00 30 1010.2
20260504192035 25 291 3.2 16.1 0.00 0.00 0.00 33 1010.3
20260504191557 25 205 3.2 17.7 0.00 0.00 0.00 30 1010.3
20260504191035 25 163 6.4 17.7 0.00 0.00 0.00 29 1010.5
20260504190534 25 88 3.2 14.5 0.00 0.00 0.00 30 1010.6
20260504185535 25 0 3.2 12.9 0.00 0.00 0.00 33 1010.6
20260504185034 25 238 3.2 16.1 0.00 0.00 0.00 30 1010.8
20260504184604 25 213 6.4 16.1 0.00 0.00 0.00 32 1010.7
20260504184037 25 70 6.4 14.5 0.00 0.00 0.00 31 1010.8
20260504183536 25 273 4.8 17.7 0.00 0.00 0.00 31 1010.9
20260504183051 25 269 4.8 17.7 0.00 0.00 0.00 30 1011.0
20260504182533 25 142 3.2 11.3 0.00 0.00 0.00 30 1011.0
20260504182035 25 132 1.6 19.3 0.00 0.00 0.00 30 1011.1
20260504181549 24 236 8.0 19.3 0.00 0.00 0.00 30 1011.3
20260504181033 25 157 3.2 14.5 0.00 0.00 0.00 30 1011.4
20260504180535 25 215 4.8 19.3 0.00 0.00 0.00 30 1011.3
20260504180049 25 259 4.8 19.3 0.00 0.00 0.00 30 1011.4
20260504175535 24 208 3.2 19.3 0.00 0.00 0.00 30 1011.5
20260504175035 24 244 4.8 19.3 0.00 0.00 0.00 30 1011.5
20260504174547 24 252 6.4 14.5 0.00 0.00 0.00 30 1011.6
20260504174034 24 240 3.2 14.5 0.00 0.00 0.00 30 1011.5
20260504173533 24 151 3.2 14.5 0.00 0.00 0.00 30 1011.6
20260504173052 24 110 4.8 12.9 0.00 0.00 0.00 30 1011.7
20260504172535 23 259 3.2 14.5 0.00 0.00 0.00 30 1011.8
20260504172033 23 106 3.2 14.5 0.00 0.00 0.00 31 1011.9
20260504171548 23 116 3.2 16.1 0.00 0.00 0.00 33 1012.0
20260504171036 23 166 1.6 16.1 0.00 0.00 0.00 31 1012.0
20260504170536 23 194 4.8 12.9 0.00 0.00 0.00 31 1012.2
20260504151035 21 250 3.2 14.5 0.00 0.00 0.00 36 1013.6
20260504150540 21 281 4.8 14.5 0.00 0.00 0.00 34 1013.6
20260504141038 19 74 0.0 8.0 0.00 0.00 0.00 47 1013.9
20260504140538 18 270 1.6 8.0 0.00 0.00 0.00 43 1014.0
20260504130539 15 183 1.6 9.7 0.00 0.00 0.00 50 1014.6
20260504110535 8 0 0.0 0.0 0.00 0.00 0.00 80 1015.1
20260504100535 8 0 0.0 0.0 0.00 0.00 0.00 74 1015.0
20260504081555 8 0 0.0 0.0 0.00 0.00 0.00 70 1015.3
20260504081034 9 0 0.0 0.0 0.00 0.00 0.00 72 1015.3
20260504080535 9 0 0.0 0.0 0.00 0.00 0.00 72 1015.3
20260504050538 7 0 0.0 0.0 0.00 0.00 0.00 83 1015.4
20260504045537 7 0 0.0 0.0 0.00 0.00 0.00 83 1015.3
20260504045038 7 0 0.0 0.0 0.00 0.00 0.00 83 1015.3
20260504044552 7 0 0.0 0.0 0.00 0.00 0.00 83 1015.2
20260504044038 7 0 0.0 0.0 0.00 0.00 0.00 83 1015.2
20260504043538 7 0 0.0 0.0 0.00 0.00 0.00 83 1015.2
20260504043047 7 0 0.0 0.0 0.00 0.00 0.00 83 1015.2
20260504042538 7 0 0.0 0.0 0.00 0.00 0.00 83 1015.1
20260504042040 7 0 0.0 0.0 0.00 0.00 0.00 84 1015.1
20260504041546 7 0 0.0 0.0 0.00 0.00 0.00 84 1015.2
20260504041038 7 0 0.0 0.0 0.00 0.00 0.00 85 1015.2
20260504040538 7 0 0.0 0.0 0.00 0.00 0.00 84 1015.2
20260504040104 7 0 0.0 0.0 0.00 0.00 0.00 84 1015.3
20260504035540 7 0 0.0 0.0 0.00 0.00 0.00 84 1015.2
20260504035040 7 0 0.0 0.0 0.00 0.00 0.00 85 1015.3
20260504034557 7 0 0.0 0.0 0.00 0.00 0.00 84 1015.3
20260504034037 7 0 0.0 0.0 0.00 0.00 0.00 84 1015.3
20260504033538 7 0 0.0 0.0 0.00 0.00 0.00 84 1015.2
20260504033119 7 0 0.0 0.0 0.00 0.00 0.00 84 1015.2
20260504032537 7 0 0.0 0.0 0.00 0.00 0.00 84 1015.2
20260504032038 7 0 0.0 0.0 0.00 0.00 0.00 83 1015.2
20260504031546 7 0 0.0 0.0 0.00 0.00 0.00 83 1015.3
20260504031038 7 0 0.0 0.0 0.00 0.00 0.00 82 1015.3
20260504030537 7 0 0.0 0.0 0.00 0.00 0.00 82 1015.2
20260504030056 7 0 0.0 0.0 0.00 0.00 0.00 81 1015.2
20260504025538 7 0 0.0 0.0 0.00 0.00 0.00 80 1015.2
20260504025038 7 0 0.0 0.0 0.00 0.00 0.00 80 1015.2
20260504024552 7 0 0.0 0.0 0.00 0.00 0.00 79 1015.1
20260504024037 8 0 0.0 0.0 0.00 0.00 0.00 79 1015.2
20260504023538 8 0 0.0 0.0 0.00 0.00 0.00 78 1015.2
20260504023100 8 0 0.0 0.0 0.00 0.00 0.00 78 1015.2
20260504022539 8 0 0.0 0.0 0.00 0.00 0.00 78 1015.2
20260504022037 8 0 0.0 0.0 0.00 0.00 0.00 78 1015.2
20260504021553 8 0 0.0 0.0 0.00 0.00 0.00 77 1015.2
20260504021037 8 0 0.0 0.0 0.00 0.00 0.00 76 1015.1
20260504020537 8 0 0.0 0.0 0.00 0.00 0.00 75 1015.1
20260504020056 9 0 0.0 0.0 0.00 0.00 0.00 74 1015.0
20260504015537 9 0 0.0 0.0 0.00 0.00 0.00 74 1015.0
20260504015039 9 0 0.0 0.0 0.00 0.00 0.00 74 1015.0
20260504014550 9 0 0.0 0.0 0.00 0.00 0.00 73 1015.0
20260504014037 10 0 0.0 0.0 0.00 0.00 0.00 71 1015.0
20260504013538 10 0 0.0 0.0 0.00 0.00 0.00 71 1014.9
20260504013100 10 0 0.0 0.0 0.00 0.00 0.00 69 1014.9
20260504012539 10 0 0.0 0.0 0.00 0.00 0.00 67 1014.7
20260504012038 10 0 0.0 0.0 0.00 0.00 0.00 66 1014.7
20260504011551 10 0 0.0 0.0 0.00 0.00 0.00 65 1014.6
20260504011037 10 0 0.0 0.0 0.00 0.00 0.00 65 1014.6
20260504010538 11 0 0.0 0.0 0.00 0.00 0.00 63 1014.6
20260504010054 11 0 0.0 0.0 0.00 0.00 0.00 61 1014.4
20260504005538 11 0 0.0 0.0 0.00 0.00 0.00 61 1014.4
20260504005038 11 0 0.0 0.0 0.00 0.00 0.00 60 1014.4
20260504004600 12 0 0.0 0.0 0.00 0.00 0.00 60 1014.3
20260504004038 12 0 0.0 0.0 0.00 0.00 0.00 58 1014.3
20260504003537 12 0 0.0 0.0 0.00 0.00 0.00 58 1014.2
20260504003051 12 0 0.0 0.0 0.00 0.00 0.00 57 1014.2
20260504002537 13 0 0.0 0.0 0.00 0.00 0.00 54 1014.1
20260504002038 13 0 0.0 0.0 0.00 0.00 0.00 54 1014.2
20260504001558 13 0 0.0 0.0 0.00 0.00 0.00 55 1014.1
20260504001037 14 0 0.0 0.0 0.00 0.00 0.00 53 1014.1
20260504000538 14 0 0.0 0.0 0.00 0.00 0.00 47 1014.1
20260504000055 15 0 0.0 0.0 0.00 0.00 0.00 51 1014.0
20260503235538 15 0 0.0 0.0 0.00 0.00 0.00 47 1013.9
20260503235036 15 0 0.0 0.0 0.00 0.00 0.00 44 1013.9
20260503234551 15 0 0.0 0.0 0.00 0.00 0.00 42 1013.8
20260503234036 16 0 0.0 0.0 0.00 0.00 0.00 36 1013.8
20260503233541 16 0 0.0 0.0 0.00 0.00 0.00 34 1013.7
20260503233054 16 0 0.0 0.0 0.00 0.00 0.00 34 1013.8
20260503232541 16 0 0.0 0.0 0.00 0.00 0.00 34 1013.7
20260503232036 16 0 0.0 0.0 0.00 0.00 0.00 33 1013.7
20260503231548 16 0 0.0 1.6 0.00 0.00 0.00 31 1013.6
20260503231038 16 0 0.0 1.6 0.00 0.00 0.00 30 1013.6
20260503230538 16 0 0.0 3.2 0.00 0.00 0.00 31 1013.6
20260503230059 16 0 0.0 3.2 0.00 0.00 0.00 30 1013.6
20260503225537 17 0 0.0 3.2 0.00 0.00 0.00 31 1013.7
20260503225038 17 260 0.0 6.4 0.00 0.00 0.00 30 1013.7
20260503224546 17 0 0.0 6.4 0.00 0.00 0.00 30 1013.8
20260503224038 17 0 0.0 4.8 0.00 0.00 0.00 30 1013.7
20260503223537 17 198 0.0 12.9 0.00 0.00 0.00 30 1013.9
20260503223049 17 276 4.8 12.9 0.00 0.00 0.00 28 1014.0
20260503222536 17 231 1.6 11.3 0.00 0.00 0.00 30 1014.0
20260503222038 17 0 0.0 3.2 0.00 0.00 0.00 30 1013.9
20260503221554 17 0 0.0 4.8 0.00 0.00 0.00 30 1013.9
20260503221038 17 270 0.0 4.8 0.00 0.00 0.00 29 1014.0
20260503220537 17 267 0.0 9.7 0.00 0.00 0.00 30 1014.0
20260503220051 17 0 3.2 9.7 0.00 0.00 0.00 30 1014.0
20260503215536 17 266 1.6 11.3 0.00 0.00 0.00 29 1014.0